Geely Xingzuo 02 zu 08 xing

operational
NORAD ID: 58912 Int'l Des: 2024-023 Owner: GEESP Country: CN Constellation: geesatcom
LEOCIRCULAR

关于 Geely Xingzuo 02 zu 08 xing

正在加载描述...

实时位置

正在加载3D地球...

即将过境

高度历史

Altitude vs Time

uPlot chart will show altitude changes over time

两行轨道根数

1 58912U 24023H 26062.18429872 .00002636 00000-0 34915-3 0 9995
2 58912 49.9883 124.1103 0004279 296.3806 63.6692 14.82894821113189
Epoch: Mar 3, 2026 • Age: 29 hours

当前状态

高度 628.3 km
速度 7.55 km/s
星下点 50.12°N, 31.2°W
发射日期 Feb 2, 2024
运行时间 2 years
类型 other

技术详情

分类 Payload
质量 130.00 kg
干质量 130.00 kg
总质量 130.00 kg
长度 1.00 m
直径 0.50 m
跨度 2.00 m
形状 Box + 2 pan
制造商 GWCG
平台类型 GPS100
阶段状态 In Orbit
所有者/国家 GEESP/CN

大型星座

Loading constellations...